Location: Newark
(47.5000°N, 4.6167°E)
Time: 04:11:11
(UTC+00:00)

X-37B - Pass Details

Date: 14 December 2021
Orbit: 334 x 337 km, 45.0° (Epoch: 11 January)

Event Time Altitude Azimuth Distance (km) Brightness Sun altitude
Rises 17:59:37 0° 271° (W) 2,106 5.7 -20.7°
Reaches altitude 10° 18:01:41 10° 263° (W) 1,267 4.4 -21.1°
Enters shadow 18:03:48 34° 224° (SW) 578 1.9 -21.4°
